7 * 24
多渠道服务支持
STARLINK-37248(NORAD编号68527)是SpaceX星链(Starlink)星座中的一颗低轨通信卫星。星链项目旨在为全球提供高速宽带互联网服务,该卫星依托近地轨道部署,可覆盖偏远地区,补充全球网络基础设施。作为星链批次部署中的一员,它延续了星座标准化设计,承担数据传输与星座组网功能,助力SpaceX实现全球卫星互联网覆盖的目标,目前已正常入轨参与星座运行。
美国
(US)
| 数据来源 | 国际轨道数据 |
| 星历时间: | 2026-04-14T13:54:25+0800 11小时前 查看轨道信息 |
| 半长轴: | 6705.949km |
| 偏心率: | 0.0001341 |
| 轨道倾角: | 53.159° |
| 近地点辐角 | 38.986° |
| 升交点赤经 | 330.970° |
| 平近点角 | 321.126° |
| 近地点: | 326.912km |
| 远地点: | 328.712km |
| 周期: | 91.086分钟 |
| 每日圈数: | 15.809292 |